Total_Precipitation_Accumulation
2.40 2.06 2.03 2.03 2.13 2.07 2.30 2.96 3.53 3.59 3.36 3.09 2.95 3.10 2.82 2.26 2.51 2.45 1.50 1.40 1.42 1.47 1.24 1.42 1.65 1.45 1.15 0.94 1.17 1.43 1.53 1.73 1.73 1.69 1.77 1.90 2.19 2.56
2.61 2.54 2.29 1.98 1.96 2.31 2.42 2.47 2.97 3.29 3.17 2.65 2.72 2.95 3.41 3.09 2.58 2.74 2.55 2.02 1.50 1.35 1.43 0.99 1.36 1.36 1.17 1.15 0.78 0.75 0.92 1.08 1.16 1.22 1.45 1.78 2.12 2.42
2.45 2.34 2.24 2.04 2.20 2.14 2.39 2.61 3.00 3.42 3.62 2.66 2.66 2.70 2.94 2.79 2.56 1.95 2.06 1.66 1.20 1.25 1.34 1.23 0.78 1.01 1.01 0.97 0.91 0.76 0.81 1.04 1.25 1.18 1.16 1.37 1.68 2.19
2.58 2.46 2.31 2.47 2.61 2.44 2.50 2.74 2.69 2.69 2.97 2.94 2.78 2.95 2.97 2.69 2.62 2.68 2.36 2.00 1.43 1.33 1.23 1.25 1.02 0.72 0.87 0.90 0.91 0.97 0.92 0.98 1.17 1.33 1.38 1.36 1.29 1.70
2.22 2.15 2.12 2.19 2.39 2.23 2.17 2.14 2.36 2.49 2.69 2.83 2.68 2.59 2.89 2.80 2.53 2.33 1.97 2.07 1.90 1.84 1.48 1.23 1.04 0.90 0.76 0.88 0.94 1.02 1.15 1.22 1.32 1.33 1.47 1.57 1.68 1.62
1.92 2.12 2.05 2.06 2.12 2.20 2.36 2.32 2.39 2.77 2.77 2.68 2.58 2.44 2.94 3.15 3.58 3.19 2.56 1.89 2.05 2.07 2.28 1.94 1.72 1.36 1.06 0.90 0.91 0.98 1.14 1.25 1.58 1.57 1.66 1.59 1.87 1.68
1.95 1.98 2.00 2.11 2.09 1.98 1.96 1.86 1.82 2.03 2.46 2.76 2.63 2.48 2.54 2.97 3.72 3.80 2.98 2.68 2.17 1.75 2.20 2.51 2.33 1.94 1.46 1.14 0.97 0.98 1.13 1.30 1.53 1.91 2.05 2.14 2.02 2.06
1.95 1.86 1.74 2.12 2.01 2.02 2.15 2.11 2.13 2.15 2.17 2.42 2.37 2.03 1.73 1.99 2.49 3.27 3.62 3.50 3.16 1.60 1.53 1.93 2.09 2.19 1.96 1.69 1.54 1.10 0.97 1.17 1.32 1.67 1.90 1.92 1.98 2.00
1.83 1.63 1.52 1.51 1.84 1.55 1.60 1.65 1.78 2.07 1.91 1.68 1.69 1.55 1.63 1.76 2.62 3.15 3.59 3.61 2.81 2.32 2.28 2.24 1.93 1.75 1.49 1.48 1.69 1.40 1.22 1.19 1.37 1.53 1.85 1.86 1.93 1.98
1.44 1.31 1.34 1.25 1.50 1.68 1.64 1.77 1.53 1.29 1.07 1.16 1.33 1.45 1.95 2.18 2.52 3.08 3.04 3.42 2.88 2.15 2.39 2.71 2.23 1.95 1.52 1.30 1.42 1.08 1.15 1.26 1.31 1.48 1.74 1.97 1.95 2.04
1.18 1.23 1.33 1.40 1.63 1.96 2.09 2.00 1.74 1.43 1.49 1.29 1.32 1.57 1.85 2.27 2.47 2.87 3.12 3.41 4.39 3.21 2.46 2.52 2.14 2.15 1.76 1.54 1.51 1.69 1.51 1.41 1.35 1.21 1.31 1.67 1.80 1.86
0.94 1.20 1.47 1.28 1.80 2.24 2.04 1.88 1.80 1.39 1.48 1.53 1.23 1.13 1.23 1.51 1.95 2.29 2.82 3.76 3.59 3.69 2.88 3.04 2.36 2.59 3.36 1.85 1.30 1.42 1.61 1.79 1.51 1.37 1.25 1.44 1.79 1.42
0.85 0.82 0.89 0.99 1.29 1.34 1.50 1.48 1.46 1.42 1.32 1.23 1.10 0.96 0.96 1.10 1.34 1.46 1.95 3.06 3.89 3.41 3.70 4.64 3.86 2.62 2.81 2.56 1.82 1.45 1.29 1.51 1.63 1.65 1.59 1.50 1.93 1.96
0.70 0.47 0.56 0.87 0.70 0.74 1.06 1.23 1.43 1.50 1.45 1.41 1.23 1.05 0.88 0.80 0.77 0.87 1.19 1.77 2.41 3.01 2.68 3.68 4.47 2.80 3.02 2.33 1.92 1.85 1.41 1.30 1.59 1.99 2.13 1.68 1.81 2.15
0.97 0.98 0.93 0.73 0.64 0.63 0.75 0.95 1.35 1.29 1.42 1.55 1.22 0.88 0.65 0.52 0.54 0.68 0.95 1.38 1.77 2.00 2.38 2.65 3.16 2.95 3.03 2.62 1.97 1.92 2.24 1.82 1.56 1.53 1.78 1.99 1.73 1.65
1.53 1.60 1.36 1.22 1.19 1.07 1.22 1.15 1.09 1.09 1.36 1.29 1.00 0.75 0.74 0.67 0.68 0.83 1.21 1.44 2.03 1.94 2.00 2.37 2.48 2.81 2.88 2.03 2.07 2.31 2.28 2.34 2.05 1.73 1.51 1.81 1.97 1.50
1.58 1.69 1.63 1.73 1.86 1.82 1.58 1.31 1.16 1.12 1.43 1.37 1.37 1.23 1.16 1.11 1.01 1.01 1.42 1.76 2.31 2.00 2.04 2.09 2.09 2.17 2.20 2.08 2.18 1.90 2.17 2.09 2.04 2.02 1.74 1.81 1.81 1.69
2.41 2.05 1.53 1.20 1.25 1.31 1.35 1.27 1.15 1.11 1.09 1.35 1.40 1.30 1.33 1.30 1.24 1.18 1.51 1.86 1.92 1.77 2.08 2.10 2.16 2.71 2.54 2.29 2.10 1.92 2.11 2.06 1.99 1.72 1.54 1.65 1.63 1.71
2.33 1.70 1.28 1.02 0.97 1.06 1.17 1.10 0.98 0.87 1.02 1.28 1.50 1.52 1.47 1.31 1.51 1.37 1.42 1.65 1.68 1.50 1.54 1.73 2.11 2.82 3.06 1.93 1.61 1.93 2.40 2.17 1.81 1.88 1.47 1.33 1.37 1.48
1.69 1.21 1.06 0.99 1.03 1.18 1.31 1.44 1.40 1.30 1.30 1.31 1.41 1.42 1.56 1.71 1.59 1.45 1.37 1.53 1.64 1.49 1.31 1.30 1.73 2.16 3.05 2.27 1.91 1.65 1.96 2.03 1.87 1.90 1.59 1.35 1.54 1.67
1.27 1.21 1.08 1.23 1.38 1.55 1.57 1.66 1.69 1.79 1.89 1.93 1.75 1.71 1.63 1.93 1.70 1.31 1.31 1.45 1.54 1.49 1.39 0.93 0.90 1.52 2.10 2.35 2.17 1.27 1.75 1.86 1.56 1.73 1.64 1.84 1.65 1.31
1.22 1.31 1.32 1.44 1.55 1.71 1.88 1.92 2.13 2.08 2.04 1.97 1.85 1.70 1.67 1.87 1.92 1.51 1.28 1.36 1.23 1.16 1.17 0.83 1.04 1.70 2.41 2.72 1.77 1.20 1.43 1.63 1.80 1.97 1.94 2.44 2.56 2.39
1.53 1.61 1.63 1.63 1.67 1.79 1.95 1.97 1.94 1.87 1.83 2.02 2.10 1.93 1.83 1.94 1.57 1.46 1.39 1.38 1.44 1.53 1.27 1.35 1.37 1.53 1.58 1.69 1.73 1.45 1.27 1.39 1.78 2.47 2.72 2.31 1.64 1.43